This is the latest recevied weather packets stored in our database for station/object N9DMT-13. If no packets are shown the sender has not sent any weather packets the latest 10 day(s).
| Time | Temp. | Humidity | Pressure | Rain* | Wind** | Luminosity | Snow |
|---|---|---|---|---|---|---|---|
| 1777639928 | 4.44° C | 75% | 985.4 hPa | 0 mm | - | - | - |
| 1777639628 | 3.89° C | 75% | 985.3 hPa | 0 mm | - | - | - |
| 1777639327 | 2.78° C | 78% | 985.3 hPa | 0 mm | - | - | - |
| 1777639026 | 2.22° C | 81% | 985.3 hPa | 0 mm | - | - | - |
| 1777638726 | 1.67° C | 82% | 985.1 hPa | 0 mm | - | - | - |
| 1777638425 | 1.11° C | 82% | 985.3 hPa | 0 mm | - | - | - |
| 1777638124 | 1.11° C | 85% | 985.1 hPa | 0 mm | - | - | - |
| 1777637824 | 0° C | 87% | 985.3 hPa | 0 mm | - | - | - |
| 1777637523 | -0.56° C | 90% | 985.2 hPa | 0 mm | - | - | - |
| 1777637222 | -1.11° C | 90% | 985 hPa | 0 mm | - | - | - |
| 1777636921 | -1.11° C | 93% | 985.1 hPa | 0 mm | - | - | - |
| 1777636620 | -1.67° C | 94% | 985.1 hPa | 0 mm | - | - | - |
| 1777636320 | -2.22° C | 94% | 985 hPa | 0 mm | - | - | - |
| 1777636019 | -2.22° C | 94% | 985.1 hPa | 0 mm | - | - | - |
| 1777635718 | -2.22° C | 94% | 984.9 hPa | 0 mm | - | - | - |
| 1777635418 | -2.22° C | 94% | 985 hPa | 0 mm | - | - | - |
| 1777635117 | -2.22° C | 94% | 984.9 hPa | 0 mm | - | - | - |
| 1777634816 | -2.22° C | 94% | 984.9 hPa | 0 mm | - | - | - |
| 1777634516 | -2.78° C | 94% | 984.9 hPa | 0 mm | - | - | - |
| 1777634215 | -2.78° C | 94% | 984.8 hPa | 0 mm | - | - | - |
| 1777633915 | -2.78° C | 94% | 984.8 hPa | 0 mm | - | - | - |
| 1777633613 | -2.78° C | 94% | 984.8 hPa | 0 mm | - | - | - |
| 1777633312 | -2.78° C | 94% | 984.7 hPa | 0 mm | - | - | - |
| 1777633011 | -2.78° C | 94% | 984.8 hPa | 0 mm | - | - | - |
| 1777632710 | -2.78° C | 94% | 984.8 hPa | 0 mm | - | - | - |
* Rain latest hour (hover to see other rain measurements)
** Current wind speed in m/s (hover to see current wind gust speed)